Back to catalog

SL-16 DEB

AliveLEO
NORAD 22493·DEBRIS·🇷🇺 Russia

Launched Dec 25, 1992 from Baikonur Cosmodrome

Loading…

Next Passes (next 24 hours)

TLE

FreshSource: Space-Track

Epoch: Sep 13, 2026, 18:02 UTC

1 22493U 92093GC  26256.75143751  .00000710  00000-0  17202-3 0  9990
2 22493  71.0391  17.7858 0093231  31.2138 329.4494 14.54032221783899

Track SL-16 DEB in real time with AllMySat

Download on the App Store